TimeCDT,TemperatureF,Dew PointF,Humidity,Sea Level PressureIn,VisibilityMPH,Wind Direction,Wind SpeedMPH,Gust SpeedMPH,PrecipitationIn,Events,Conditions,WindDirDegrees,DateUTC
12:15 AM,81.5,63.1,54,30.06,10.0,ESE,3.5,-,N/A,,Clear,110,2013-09-17 05:15:00
12:35 AM,81.5,62.8,53,30.06,10.0,ESE,4.6,-,N/A,,Clear,120,2013-09-17 05:35:00
12:55 AM,80.6,62.8,54,30.06,10.0,ESE,3.5,-,N/A,,Clear,120,2013-09-17 05:55:00
1:15 AM,80.6,63.0,55,30.06,10.0,ESE,4.6,-,N/A,,Scattered Clouds,120,2013-09-17 06:15:00
1:35 AM,79.5,64.2,59,30.07,10.0,Calm,Calm,-,N/A,,Scattered Clouds,0,2013-09-17 06:35:00
1:55 AM,79.0,64.6,61,30.06,10.0,Calm,Calm,-,N/A,,Scattered Clouds,0,2013-09-17 06:55:00
2:15 AM,76.3,65.3,69,30.06,10.0,Calm,Calm,-,N/A,,Clear,0,2013-09-17 07:15:00
2:35 AM,77.0,63.5,63,30.06,10.0,East,3.5,-,N/A,,Scattered Clouds,80,2013-09-17 07:35:00
2:55 AM,73.9,65.7,75,30.06,10.0,ESE,4.6,-,N/A,,Clear,120,2013-09-17 07:55:00
3:15 AM,77.2,63.1,62,30.06,10.0,East,3.5,-,N/A,,Clear,100,2013-09-17 08:15:00
3:35 AM,77.9,62.6,59,30.05,10.0,ESE,5.8,-,N/A,,Clear,110,2013-09-17 08:35:00
3:55 AM,78.3,61.9,57,30.05,10.0,ESE,6.9,-,N/A,,Clear,110,2013-09-17 08:55:00
4:15 AM,77.9,61.5,57,30.04,10.0,ESE,5.8,-,N/A,,Clear,120,2013-09-17 09:15:00
4:35 AM,77.4,61.5,58,30.05,10.0,ESE,6.9,-,N/A,,Clear,120,2013-09-17 09:35:00
4:55 AM,77.7,61.2,57,30.04,10.0,SE,6.9,-,N/A,,Clear,130,2013-09-17 09:55:00
5:15 AM,75.9,62.1,62,30.04,10.0,ESE,4.6,-,N/A,,Scattered Clouds,120,2013-09-17 10:15:00
5:35 AM,76.1,61.7,61,30.05,10.0,ESE,5.8,-,N/A,,Clear,120,2013-09-17 10:35:00
5:55 AM,75.2,61.7,63,30.05,10.0,Calm,Calm,-,N/A,,Clear,0,2013-09-17 10:55:00
6:15 AM,74.5,61.5,64,30.05,10.0,Calm,Calm,-,N/A,,Clear,0,2013-09-17 11:15:00
6:35 AM,73.6,60.8,64,30.05,10.0,Calm,Calm,-,N/A,,Clear,0,2013-09-17 11:35:00
6:55 PM,77.0,73.4,89,29.97,10.0,NNW,3.5,-,N/A,,Clear,330,2013-09-17 23:55:00
11:35 PM,74.3,70.9,89,29.99,10.0,ESE,3.5,-,N/A,,Clear,120,2013-09-18 04:35:00
11:55 PM,73.8,71.6,93,29.99,10.0,Calm,Calm,-,N/A,,Clear,0,2013-09-18 04:55:00